Flag for Albania Weather past 2 weeks in Tirana, Albania

Now
50 °F

Light rain. Passing clouds.


Feels Like: 48 °F
Forecast: 46 / 58 °F
Wind: 5 mph from Southeast

Location: Tirana Airport

Current Time: Oct 23, 2014 at 8:18:16 PM

Latest Report: Oct 23, 2014 at 7:50 PM


Visibility: N/A

Pressure: 29.74 "Hg

Humidity: 88%

Dew point: 46 °F

Location of TiranaLocation

Historic Weather in Tirana — Graph

°F

Tirana temperature yesterday

Maximum temperature yesterday: 77 °F (at 12:20 PM)
Minimum temperature yesterday: 52 °F (at 11:50 PM)
Average temperature yesterday: 64 °F

Past Weeks' High & Low Weather Summary

 TemperatureHumidityPressure
High82 °F (Oct 9, 1:20 PM)94% (Oct 8, 9:20 PM)30.27 "Hg (Oct 8, 9:20 PM)
Low48 °F (Oct 19, 7:20 AM)24% (Oct 19, 1:20 PM)29.53 "Hg (Oct 22, 3:20 PM)
Average65 °F76%30.02 "Hg
* Reported Oct 8 7:20 PM — Oct 23 7:20 PM, Tirana, Weather by CustomWeather, © 2014

Note: Actual official high and low records may vary slightly from our data, if they occured in-between our weather recording intervals... More about our weather records

Advertising

Tirana weather history for previous 24 hours

 ConditionsComfort  
Time TempWeatherWind HumidityBarometerVisibility
7:20 PM
Oct 23
48 °FRain. Mostly cloudy.5 mph87%29.74 "HgN/A
6:50 PM52 °FLight rain. Passing clouds.7 mph72%29.74 "HgN/A
6:20 PM52 °FThundershowers. Broken clouds.3 mph77%29.71 "HgN/A
5:50 PM52 °FThundershowers. Scattered clouds.No wind72%29.68 "HgN/A
5:20 PM54 °FScattered clouds.2 mph63%29.68 "HgN/A
4:50 PM54 °FScattered clouds.5 mph58%29.68 "HgN/A
4:20 PM55 °FScattered clouds.6 mph55%29.68 "HgN/A
3:50 PM55 °FScattered clouds.3 mph63%29.65 "HgN/A
3:20 PM55 °FThundershowers. Scattered clouds.6 mph67%29.65 "HgN/A
2:50 PM55 °FThundershowers. Scattered clouds.6 mph63%29.65 "HgN/A
2:20 PM55 °FScattered clouds.6 mph63%29.65 "HgN/A
1:50 PM55 °FBroken clouds.7 mph63%29.62 "HgN/A
1:20 PM54 °FBroken clouds.6 mph67%29.62 "HgN/A
12:50 PM54 °FBroken clouds.3 mph67%29.62 "HgN/A
12:20 PM55 °FScattered clouds.No wind63%29.62 "HgN/A
11:50 AM54 °FBroken clouds.6 mph67%29.62 "HgN/A
11:20 AM54 °FBroken clouds.5 mph82%29.62 "HgN/A
10:50 AM50 °FThunderstorms. Broken clouds.2 mph88%29.62 "HgN/A
10:20 AM50 °FBroken clouds.2 mph88%29.59 "HgN/A
9:50 AM48 °FLight rain. Cloudy.9 mph87%29.59 "HgN/A
9:20 AM50 °FRain. Broken clouds.9 mph82%29.59 "HgN/A
8:50 AM50 °FBroken clouds.9 mph82%29.59 "HgN/A
8:20 AM52 °FBroken clouds.7 mph88%29.56 "HgN/A
7:20 AM54 °FMostly cloudy.8 mph82%29.53 "HgN/A
6:50 AM54 °FMostly cloudy.6 mph88%29.53 "HgN/A
6:20 AM52 °FLight rain. Overcast.3 mph94%29.53 "Hg3 mi
5:50 AM52 °FMostly cloudy.3 mph88%29.53 "HgN/A
5:20 AM52 °FPassing clouds.5 mph94%29.53 "HgN/A
4:50 AM52 °FPartly cloudy.5 mph88%29.56 "HgN/A
3:50 AM52 °FPartly cloudy.5 mph94%29.56 "HgN/A
3:20 AM52 °FOvercast.2 mph88%29.56 "HgN/A
2:50 AM52 °FOvercast.3 mph88%29.56 "HgN/A
2:20 AM52 °FMostly cloudy.7 mph88%29.56 "HgN/A
1:50 AM52 °FMostly cloudy.6 mph94%29.59 "HgN/A
12:50 AM52 °FLight rain. Mostly cloudy.3 mph88%29.62 "HgN/A
12:20 AM52 °FLight rain. Mostly cloudy.5 mph88%29.62 "HgN/A
11:50 PM
Oct 22
52 °FLight rain. Mostly cloudy.8 mph88%29.62 "Hg4 mi
11:20 PM54 °FHeavy rain. Overcast.16 mph88%29.62 "Hg3 mi
10:50 PM57 °FRain. Overcast.6 mph88%29.59 "Hg4 mi
10:20 PM57 °FLight rain. Mostly cloudy.6 mph88%29.56 "HgN/A
9:50 PM59 °FLight rain. Mostly cloudy.3 mph82%29.59 "HgN/A
9:20 PM59 °FLight rain. Partly cloudy.3 mph88%29.56 "HgN/A
8:50 PM59 °FLight rain. Partly cloudy.6 mph88%29.59 "HgN/A
8:20 PM59 °FPartly cloudy.3 mph88%29.59 "HgN/A
Weather by CustomWeather, © 2014

See weather overviewHow to use our weather pages